Tracking 30923 objects as of 1-Jul-2025
HD Live streaming from Space Station
objects crossing your sky now

DMSP 5D-2 F11 DEB

Track DMSP 5D-2 F11 DEB now!
10-day predictions


NORAD ID: 28333
Int'l Code: 1991-082AW
Perigee: 615.7 km
Apogee: 618.1 km
Inclination: 98.5 °
Period: 96.9 minutes
Semi major axis: 6987 km
RCS: 0.0092 m2 (small)
Launch date: November 28, 1991
Source: United States (US)
Launch site: AIR FORCE WESTERN TEST RANGE (AFWTR)

Note: This is SATELLITE DEBRIS
Your satellite tracking list
Your tracking list is empty




NASA's NSSDC Master Catalog

Two Line Element Set (TLE):
1 28333U 91082AW  25181.52034909  .00022272  00000-0  25347-2 0  9996
2 28333  98.5249 279.8531 0001719 250.1581 123.9367 14.86214616104693
Source of the keplerian elements: AFSPC